Weather History for Corpus Christi, TX

Change the Weather History Date:

Thursday, April 21, 2011

  Actual Average Record
Temperature  
Mean Temperature 81 °F 74 °F  
Max Temperature 87 °F 83 °F 95 °F (2009)
Min Temperature 75 °F 64 °F 51 °F (1980)
Degree Days  
Heating Degree Days 0 0  
Month to date heating degree days 1 15  
Since 1 July heating degree days 934 896  
Cooling Degree Days 16 9  
Month to date cooling degree days 227 151  
Year to date cooling degree days 493 342  
Growing Degree Days 31 (Base 50)    
Moisture  
Dew Point 72 °F    
Average Humidity 74    
Maximum Humidity 94    
Minimum Humidity 53    
Precipitation  
Precipitation 0.00 in 0.06 in 2.22 in (1946)
Month to date precipitation 0.01 1.22  
Year to date precipitation 4.44 6.58  
Snow  
Snow 0.00 in - - ()
Month to date snowfall 0.0  
Since 1 July snowfall 0.0  
Snow Depth 0.00 in    
Sea Level Pressure  
Sea Level Pressure 29.89 in    
Wind  
Wind Speed 16 mph (SE)    
Max Wind Speed 28 mph    
Max Gust Speed 37 mph    
Visibility 9 miles    
Events      
T = Trace of Precipitation, MM = Missing Value Source: NWS Daily Summary

Daily Weather History Graph

Daily Weather History Graph

Search for Another Location

Airport:

Trip Planner

Search our weather history database for the weather conditions in past years. The results will help you decide how hot, cold, wet, or windy it might be!

Date:

Astronomy

Apr. 21, 2011 Rise Set
Actual Time 6:59 AM CDT 7:58 PM CDT
Civil Twilight 6:35 AM CDT 8:22 PM CDT
Nautical Twilight 6:06 AM CDT 8:51 PM CDT
Astronomical Twilight 5:37 AM CDT 9:20 PM CDT
Moon No Moon Rise 9:49 AM CDT (4/21)
Length of Visible Light 13h 47m
Length of Day
12h 58m
Waning Gibbous, 83% of the Moon is Illuminated
Apr 21
Waning Gibbous
Apr 24
Last Quarter
May 3
New
May 10
First Quarter
May 17
Full

Hourly Weather History & Observations

Time (CDT) Temp. Heat Index Dew Point Humidity Pressure Visibility Wind Dir Wind Speed Gust Speed Precip Events Conditions
12:35 AM 78.8 °F - 73.4 °F 83% 29.91 in 10.0 mi SSE 15.0 mph 21.9 mph N/A   Overcast
12:51 AM 77.0 °F - 73.0 °F 88% 29.90 in 10.0 mi SSE 13.8 mph - N/A   Overcast
1:42 AM 75.2 °F - 73.4 °F 94% 29.91 in 10.0 mi SE 10.4 mph - N/A   Scattered Clouds
1:51 AM 75.9 °F - 73.0 °F 91% 29.91 in 9.0 mi SE 10.4 mph 19.6 mph N/A   Partly Cloudy
2:51 AM 75.0 °F - 73.0 °F 94% 29.89 in 9.0 mi ESE 5.8 mph - N/A   Partly Cloudy
3:28 AM 75.2 °F - 73.4 °F 94% 29.90 in 9.0 mi Variable 6.9 mph - N/A   Mostly Cloudy
3:48 AM 75.2 °F - 73.4 °F 94% 29.90 in 8.0 mi ESE 5.8 mph - N/A   Mostly Cloudy
3:51 AM 75.0 °F - 73.0 °F 94% 29.90 in 8.0 mi Variable 6.9 mph - N/A   Mostly Cloudy
4:43 AM 75.2 °F - 73.4 °F 94% 29.90 in 7.0 mi Variable 6.9 mph - N/A   Overcast
4:51 AM 75.0 °F - 73.0 °F 94% 29.90 in 7.0 mi Variable 6.9 mph - N/A   Overcast
5:51 AM 75.9 °F - 73.0 °F 91% 29.90 in 7.0 mi SE 8.1 mph - N/A   Overcast
6:19 AM 75.2 °F - 73.4 °F 94% 29.90 in 7.0 mi SE 11.5 mph 20.7 mph N/A   Overcast
6:51 AM 75.0 °F - 72.0 °F 90% 29.88 in 6.0 mi ESE 9.2 mph 20.7 mph N/A   Mostly Cloudy
7:00 AM 75.2 °F - 71.6 °F 89% 29.89 in 6.0 mi SE 11.5 mph 20.7 mph N/A   Mostly Cloudy
7:22 AM 75.2 °F - 71.6 °F 89% 29.90 in 5.0 mi SE 13.8 mph 20.7 mph N/A   Mostly Cloudy
7:48 AM 75.2 °F - 71.6 °F 89% 29.92 in 5.0 mi SE 11.5 mph 19.6 mph N/A   Overcast
7:51 AM 75.9 °F - 72.0 °F 87% 29.92 in 5.0 mi SE 8.1 mph 19.6 mph N/A   Overcast
8:51 AM 78.1 °F - 71.1 °F 79% 29.94 in 6.0 mi SE 11.5 mph - N/A   Haze
9:51 AM 80.1 °F 83.2 °F 70.0 °F 71% 29.94 in 10.0 mi SSE 16.1 mph 25.3 mph N/A   Mostly Cloudy
10:42 AM 82.4 °F 86.3 °F 69.8 °F 66% 29.95 in 10.0 mi SSE 21.9 mph 29.9 mph N/A   Mostly Cloudy
10:51 AM 82.9 °F 86.5 °F 69.1 °F 63% 29.95 in 10.0 mi SE 19.6 mph 28.8 mph N/A   Mostly Cloudy
11:51 AM 84.9 °F 88.8 °F 69.1 °F 59% 29.94 in 10.0 mi SSE 21.9 mph 29.9 mph N/A   Scattered Clouds
12:51 PM 87.1 °F 90.6 °F 68.0 °F 53% 29.93 in 10.0 mi SE 24.2 mph 33.4 mph N/A   Scattered Clouds
1:51 PM 87.1 °F 92.0 °F 70.0 °F 57% 29.91 in 10.0 mi SE 24.2 mph 35.7 mph N/A   Scattered Clouds
2:51 PM 86.0 °F 91.5 °F 71.1 °F 61% 29.90 in 10.0 mi SE 21.9 mph 31.1 mph N/A   Scattered Clouds
3:51 PM 86.0 °F 91.5 °F 71.1 °F 61% 29.86 in 10.0 mi SE 25.3 mph 32.2 mph N/A   Scattered Clouds
4:51 PM 84.0 °F 89.0 °F 71.1 °F 65% 29.85 in 10.0 mi SE 24.2 mph 33.4 mph N/A   Scattered Clouds
5:30 PM 84.2 °F 89.6 °F 71.6 °F 66% 29.84 in 10.0 mi SE 21.9 mph 33.4 mph N/A   Mostly Cloudy
5:51 PM 84.0 °F 89.0 °F 71.1 °F 65% 29.83 in 10.0 mi SE 24.2 mph 31.1 mph N/A   Mostly Cloudy
6:51 PM 80.1 °F 83.8 °F 72.0 °F 76% 29.83 in 10.0 mi SE 13.8 mph 26.5 mph N/A   Mostly Cloudy
7:51 PM 79.0 °F - 72.0 °F 79% 29.84 in 10.0 mi SE 13.8 mph 26.5 mph N/A   Overcast
8:13 PM 78.8 °F - 71.6 °F 78% 29.85 in 10.0 mi SE 19.6 mph 29.9 mph N/A   Overcast
8:51 PM 78.1 °F - 73.0 °F 84% 29.85 in 10.0 mi SE 18.4 mph 31.1 mph N/A   Overcast
9:51 PM 78.1 °F - 73.0 °F 84% 29.86 in 10.0 mi SSE 20.7 mph 28.8 mph N/A   Overcast
10:20 PM 78.8 °F - 73.4 °F 83% 29.86 in 10.0 mi SSE 19.6 mph 31.1 mph N/A   Overcast
10:51 PM 78.1 °F - 73.0 °F 84% 29.86 in 10.0 mi SSE 18.4 mph 27.6 mph N/A   Mostly Cloudy
11:51 PM 78.1 °F - 73.0 °F 84% 29.87 in 9.0 mi SSE 17.3 mph 28.8 mph N/A   Overcast